Weather in Izium

Ukraine / Kharkiv Region     49°11′28″N   37°16′41″E
temp.,
°C
wind,
m/s
gust,
m/s
humid.,
%
clouds,
%
prec.,
mm/h
press.,
hPa
HPBL,
m
15 may, sat
sat1500:00+15sw33770 0.0 101127
03:00+13wsw22806 0.0 101215
06:00+13sw2280100 0.0 101254
09:00+19wsw34605 0.0 1013484
12:00+23sw45455 0.0 10131483
15:00+24sw47421 0.0 10132372
18:00+23sw35524 0.0 1013400
21:00+17w22666 0.0 101411
16 may, sun
sun1600:00+15ene11710 0.0 101411
03:00+15ene1171100 0.0 101411
06:00+15ne227339 0.0 101420
09:00+21ne355798 0.0 1013461
12:00+25ene455115 0.0 10121350
15:00+26ene5650100 0.0 10101801
18:00+23ene5865100 0.1 1009213
21:00+18ene49715 0.1 1009132
17 may, mon
mon1700:00+17ene4127353 0.0 1007188
03:00+15e4117870 0.0 1006205
06:00+15e51176100 0.0 1006208
09:00+20ese7125740 0.0 1005544
12:00+25sse71147100 0.0 10051212
15:00+26sse6850100 0.0 10051447
18:00+24sse5964100 0.0 1005549
21:00+19s51279100 0.0 1007396
18 may, tue
tue1800:00+18sw51281100 0.0 1007585
03:00+15ssw4993100 0.0 1008330
06:00+15s259371 0.0 1010173
09:00+19ssw5668100 0.1 1010796
12:00+22s5654100 0.0 10091353
15:00+23s5850100 0.0 10081895
18:00+21s476693 0.3 1008489
21:00+16ssw51187100 0.8 1008430
19 may, wed
wed1900:00+15ssw5128981 0.4 1008430
03:00+14sw71189100 0.4 1008704
06:00+13wsw599197 0.0 1010402
09:00+14wsw5783100 0.1 1011738
12:00+20wsw5754100 0.0 10121635
15:00+21wsw5648100 0.0 10132160
18:00+19sw345950 0.0 1012642
21:00+16ese2264100 0.0 101312